Air Resources Laboratory banner image
Air Resources Laboratory web site National Oceanic and Atmospheric Administration (NOAA)

ma roundup


Office: BOX

ASUS41 KBOX 222310
RWRBOX

REGIONAL WEATHER ROUNDUP
NATIONAL WEATHER SERVICE BOSTON/NORTON MA
700 PM EDT TUE MAY 22 2018

NOTE:  "FAIR" INDICATES FEW OR NO CLOUDS BELOW 12,000 FEET WITH NO
SIGNIFICANT WEATHER AND/OR OBSTRUCTIONS TO VISIBILITY.

MAZALL-230000-
EASTERN MASSACHUSETTS

CITY           SKY/WX    TMP DP  RH WIND       PRES   REMARKS
BOSTON         CLOUDY    60  53  77 SW16      30.04F
BEVERLY        LGT RAIN  61  54  77 SW7       30.02F
LAWRENCE       CLOUDY    63  49  60 SW12      30.04F
BEDFORD        CLOUDY    59  49  69 SW13      30.02F
BLUE HILL        N/A     55  52  89 SW9       30.03F
NORWOOD        LGT RAIN  59  53  80 SW7       30.04F
MARSHFIELD     MOCLDY    57  52  82 SW6       30.05F
PLYMOUTH       CLOUDY    56  53  90 S3        30.06F
TAUNTON        LGT RAIN  57  54  89 S3        30.05F
NEW BEDFORD    LGT RAIN  56  53  90 SW3       30.05F
$$

MAZALL-230000-
CAPE COD AND THE ISLANDS

CITY           SKY/WX    TMP DP  RH WIND       PRES   REMARKS
FALMOUTH       DRIZZLE   57  48  72 S5        30.08F
HYANNIS        LGT RAIN  58  52  80 S3        30.06F
CHATHAM        LGT RAIN  57  50  77 SW3       30.08F
PROVINCETOWN   LGT RAIN  56  52  86 S8        30.07F
NANTUCKET      CLOUDY    53  50  89 SE8       30.07F
MARTHAS VNYRD  LGT RAIN  57  49  74 S7        30.06F
$$

MAZALL-230000-
CENTRAL AND WESTERN MASSACHUSETTS

CITY           SKY/WX    TMP DP  RH WIND       PRES   REMARKS
WORCESTER      CLOUDY    54  49  83 S12       30.02F
FITCHBURG      CLOUDY    58  52  80 S12       30.03F
ORANGE         LGT RAIN  57  50  77 S12G24    30.03F
SPRINGFIELD    LGT RAIN  57  48  72 S10       30.02F
WESTFIELD      CLOUDY    56  51  84 S8        30.02F
NORTH ADAMS    CLOUDY    59  49  69 VRB3      29.98F
PITTSFIELD     CLOUDY    56  50  80 SW7       29.99F
$$

RIZALL-230000-
RHODE ISLAND

CITY           SKY/WX    TMP DP  RH WIND       PRES   REMARKS
PROVIDENCE     LGT RAIN  57  55  93 S5        30.06F
NEWPORT        LGT RAIN  56  53  90 CALM      30.05F
BLOCK ISLAND   RAIN      55  53  93 SE3       30.05F
SMITHFIELD     LGT RAIN  55  54  96 MISG      30.05F
WESTERLY       LGT RAIN  56  54  93 SE3       30.05F
$$

CTZALL-230000-
CONNECTICUT

CITY           SKY/WX    TMP DP  RH WIND       PRES   REMARKS
BRADLEY INTL   LGT RAIN  55  52  89 S10       30.02F
HARTFORD       CLOUDY    56  54  93 SE6       30.03F
BRIDGEPORT     CLOUDY    56  53  90 E5        30.03F
DANBURY        CLOUDY    56  53  90 SW3       30.04S
GROTON         LGT RAIN  55  53  93 N5        30.05F
NEW HAVEN      CLOUDY    57  55  93 SE5       30.04F
CHESTER        LGT RAIN  55  54  94 CALM      30.04F
MERIDEN        LGT RAIN  56  54  93 SW3       30.04F
WILLIMANTIC    LGT RAIN  56  53  90 S3        30.05F
OXFORD         LGT RAIN  54  52  94 CALM      30.04F
$$

MEZ002-015-021-024-NHZ003-005-008-011-012-014-VTZ005-008-230000-
NORTHERN NEW ENGLAND

CITY           SKY/WX    TMP DP  RH WIND       PRES   REMARKS
PORTLAND ME    LGT RAIN  60  57  89 S7        30.03F
BANGOR ME      CLOUDY    63  48  58 S10       30.00S
CONCORD NH     CLOUDY    59  57  93 CALM      30.00F
MANCHESTER NH  LGT RAIN  64  52  64 SW15G21   29.99F
NASHUA NH      LGT RAIN  60  52  74 SW7G16    30.02F
PORTSMOUTH NH  CLOUDY    56  54  94 SE9       30.00
JAFFREY NH     CLOUDY    57  50  77 S7        30.03S
KEENE NH       CLOUDY    59  51  75 S8        30.01S
BURLINGTON VT  LGT RAIN  59  56  89 SE7       29.91F
MT. WASHINGTON LGT RAIN  36  36 100 S40G51      N/A  VSB 0   WCI  21
$$

NYZ052-076-230000-
EASTERN NEW YORK

CITY           SKY/WX    TMP DP  RH WIND       PRES   REMARKS
ALBANY         CLOUDY    60  49  66 S18G24    29.95F
NEW YORK CITY  CLOUDY    57  53  86 NE5       30.03F
$$

ANZALL-230000-
MARINE OBSERVATIONS

STATION/POSITION TIME  TEMP    WIND        PRES    VSBY  WAVE
                       AIR SEA DIR/SP/G                  HT/PER
                 (UTC) (F)     (DEG/KT/KT) (MB)    (MI)  (FT/S)
BOSTON BUOY      2250   58 54  180/ 12/ 14 1017.0F         1/ 9
BUZZARDS BAY     2200   56     170/  9/  9 1019.1F
NANTUCKET SOUND  2250   56 56  170/  6/  6 1018.1F         1
MASS BAY-STELLWA 2204   55 53              1016.2F         1/ 5
ISLE OF SHOALS   2300   56     160/ 11/ 12 1015.9F
S OF BLOCK IS    2243      54                N/A           2/ 9
$$

......................KEY.........................
  SKY/WX - SKY CONDITION/PRESENT WEATHER
  TMP    - TEMPERATURE IN FAHRENHEIT
  DWPT   - DEWPOINT IN FAHRENHEIT
  RH     - RELATIVE HUMIDITY IN PERCENT
  WIND   - DIRECTION AND SPEED IN MPH
  PRES   - MEAN SEA LEVEL PRESSURE IN INCHES OF HG
  WCI    - WIND CHILL INDEX
  VSB    - VISIBILITY IN MILES
  HX     - HEAT INDEX
  TC     - TEMPERATURE IN CELSIUS
  VRB    - VARIABLE WIND DIRECTION
  N/A    - NOT AVAILABLE




Office: GYX ASUS41 KGYX 222306 RWRGYX WEATHER ROUNDUP FOR MAINE AND NEW HAMPSHIRE NATIONAL WEATHER SERVICE GRAY ME 700 PM EDT TUE MAY 22 2018 MEZ002-005-006-010-012-015-018-020-021-024-026-027-029-230000- MAINE CITY SKY/WX TMP DP RH WIND PRES REMARKS PORTLAND LGT RAIN 60 57 89 S7 30.03F SANFORD CLOUDY 58 55 90 VRB3 30.02F BAR HARBOR CLOUDY 54 48 80 SW9 30.05S WISCASSET CLOUDY 57 52 83 SE3 30.04F ROCKLAND CLOUDY 53 49 86 SW3 30.04F FRYEBURG CLOUDY 58 56 93 S3 30.02F LEWISTONAUBURN LGT RAIN 61 54 77 S3 30.02F AUGUSTA CLOUDY 63 49 60 SW7 30.01F WATERVILLE FAIR 64 50 60 SW8 29.98F BANGOR CLOUDY 63 48 58 S10 30.00S GREENVILLE N/A 64 43 46 S8G21 29.95F MILLINOCKET FAIR 68 41 37 VRB6 29.95F HOULTON FAIR 69 38 32 S10G23 29.91F PRESQUE ISLE FAIR 71 38 29 SW20G32 29.86F FRENCHVILLE FAIR 73 38 27 SW17G26 29.81F CARIBOU MOCLDY 71 38 29 SW14G26 29.84F $$ NHZ002-005-008-009-011-012-014-230000- NEW HAMPSHIRE CITY SKY/WX TMP DP RH WIND PRES REMARKS PORTSMOUTH CLOUDY 56 54 94 SE9 30.00F ROCHESTER CLOUDY 58 55 90 SE7 30.00F NASHUA LGT RAIN 60 52 74 VRB6G16 30.02F MANCHESTER LGT RAIN 64 52 64 SW15G21 29.99F CONCORD CLOUDY 59 57 93 CALM 30.00F LACONIA CLOUDY 57 55 93 CALM 30.01F PLYMOUTH LGT RAIN 57 55 91 CALM 29.99F BERLIN LGT RAIN 57 53 86 CALM 29.99F WHITEFIELD LGT RAIN 56 55 97 CALM 29.98F FOG JAFFREY CLOUDY 57 50 77 S7 30.03S KEENE CLOUDY 59 51 75 S8 30.01S LEBANON CLOUDY 60 52 74 S9 29.96F MT WASHINGTON LGT RAIN 36 36 100 S40G51 N/A VSB 0 $$ VTZ005-007-008-230000- VERMONT CITY SKY/WX TMP DP RH WIND PRES REMARKS ST JOHNSBURY N/A 56 54 93 MISG 29.95F MONTPELIER RAIN 55 55 100 S9 29.99F FOG BURLINGTON LGT RAIN 59 56 89 SE7 29.91F $$ MAZ007-012-024-CTZ003-RIZ002-NYZ038-NYZ072-230000- SOUTHERN NEW ENGLAND AND NY CITY SKY/WX TMP DP RH WIND PRES REMARKS BOSTON CLOUDY 60 53 77 SW16 30.04F WORCESTER CLOUDY 54 49 83 S12 30.02F NANTUCKET CLOUDY 53 50 89 SE8 30.07F PROVIDENCE LGT RAIN 57 55 93 S5 30.06F HARTFORD LGT RAIN 55 52 89 S10 30.02F ALBANY CLOUDY 60 49 66 S18G24 29.95F NEW YORK CITY CLOUDY 57 53 86 NE5 30.03F $$ ANZ081-ANZ082-ANZ150-NHZ014-MEZ023>029-230000- COASTAL MARINE OBSERVATIONS STATION/POSITION TIME TEMP WIND PRES WAVE AIR SEA DIR/SP/G HT/PER (UTC) (F) (DEG/KT/KT) (MB) (FT/S) MOUNT DESERT ROC 2300 49 210/ 12/ 13 1017.9F MATINICUS ROCK 2200 50 220/ 13/ 15 1018.0F ISLE OF SHOALS 2200 56 130/ 11/ 12 1016.9F JEFFREYS LEDGE 2236 52 N/A 2/ 9 CASHES LEDGE BUO 2250 51 51 1017.9F 2/ 8 $$ .............KEY.............. WCI - WIND CHILL TC - TEMPERATURE IN CELSIUS VSB - VISIBILITY IN MILES HX - HEAT INDEX FAIR- INDICATES FEW OR NO CLOUDS BELOW 12,000 FT, WITH NO SIGNIFICANT WEATHER AND/OR OBSTRUCTIONS TO VISIBILITY. ASUS41 KGYX 222310 RWRGYX WEATHER ROUNDUP FOR MAINE AND NEW HAMPSHIRE NATIONAL WEATHER SERVICE GRAY ME 700 PM EDT TUE MAY 22 2018 MEZ002-005-006-010-012-015-018-020-021-024-026-027-029-230000- MAINE CITY SKY/WX TMP DP RH WIND PRES REMARKS PORTLAND LGT RAIN 60 57 89 S7 30.03F SANFORD CLOUDY 58 55 90 VRB3 30.02F BAR HARBOR CLOUDY 54 48 80 SW9 30.05S WISCASSET CLOUDY 57 52 83 SE3 30.04F ROCKLAND CLOUDY 53 49 86 SW3 30.04F FRYEBURG CLOUDY 58 56 93 S3 30.02F LEWISTONAUBURN LGT RAIN 61 54 77 S3 30.02F AUGUSTA CLOUDY 63 49 60 SW7 30.01F WATERVILLE FAIR 64 50 60 SW8 29.98F BANGOR CLOUDY 63 48 58 S10 30.00S GREENVILLE N/A 64 43 46 S8G21 29.95F MILLINOCKET FAIR 68 41 37 VRB6 29.95F HOULTON FAIR 69 38 32 S10G23 29.91F PRESQUE ISLE FAIR 71 38 29 SW20G32 29.86F FRENCHVILLE FAIR 73 38 27 SW17G26 29.81F CARIBOU MOCLDY 71 38 29 SW14G26 29.84F $$ NHZ002-005-008-009-011-012-014-230000- NEW HAMPSHIRE CITY SKY/WX TMP DP RH WIND PRES REMARKS PORTSMOUTH CLOUDY 56 54 94 SE9 30.00F ROCHESTER CLOUDY 58 55 90 SE7 30.00F NASHUA LGT RAIN 60 52 74 SW7G16 30.02F MANCHESTER LGT RAIN 64 52 64 SW15G21 29.99F CONCORD CLOUDY 59 57 93 CALM 30.00F LACONIA CLOUDY 57 55 93 CALM 30.01F PLYMOUTH LGT RAIN 57 55 91 CALM 29.99F BERLIN LGT RAIN 57 53 86 CALM 29.99F WHITEFIELD LGT RAIN 56 55 97 CALM 29.98F FOG JAFFREY CLOUDY 57 50 77 S7 30.03S KEENE CLOUDY 59 51 75 S8 30.01S LEBANON CLOUDY 60 52 74 S9 29.96F MT WASHINGTON LGT RAIN 36 36 100 S40G51 N/A VSB 0 $$ VTZ005-007-008-230000- VERMONT CITY SKY/WX TMP DP RH WIND PRES REMARKS ST JOHNSBURY N/A 56 54 93 MISG 29.95F MONTPELIER RAIN 55 55 100 S9 29.99F FOG BURLINGTON LGT RAIN 59 56 89 SE7 29.91F $$ MAZ007-012-024-CTZ003-RIZ002-NYZ038-NYZ072-230000- SOUTHERN NEW ENGLAND AND NY CITY SKY/WX TMP DP RH WIND PRES REMARKS BOSTON CLOUDY 60 53 77 SW16 30.04F WORCESTER CLOUDY 54 49 83 S12 30.02F NANTUCKET CLOUDY 53 50 89 SE8 30.07F PROVIDENCE LGT RAIN 57 55 93 S5 30.06F HARTFORD LGT RAIN 55 52 89 S10 30.02F ALBANY CLOUDY 60 49 66 S18G24 29.95F NEW YORK CITY CLOUDY 57 53 86 NE5 30.03F $$ ANZ081-ANZ082-ANZ150-NHZ014-MEZ023>029-230000- COASTAL MARINE OBSERVATIONS STATION/POSITION TIME TEMP WIND PRES WAVE AIR SEA DIR/SP/G HT/PER (UTC) (F) (DEG/KT/KT) (MB) (FT/S) MOUNT DESERT ROC 2300 49 210/ 12/ 13 1017.9F MATINICUS ROCK 2300 54 210/ 13/ 13 1017.1F ISLE OF SHOALS 2300 56 160/ 11/ 12 1015.9F JEFFREYS LEDGE 2236 52 N/A 2/ 9 CASHES LEDGE BUO 2250 51 51 1017.9F 2/ 8 $$ .............KEY.............. WCI - WIND CHILL TC - TEMPERATURE IN CELSIUS VSB - VISIBILITY IN MILES HX - HEAT INDEX FAIR- INDICATES FEW OR NO CLOUDS BELOW 12,000 FT, WITH NO SIGNIFICANT WEATHER AND/OR OBSTRUCTIONS TO VISIBILITY.
Office: OKX ASUS41 KOKX 222205 RWROKX Regional Weather Roundup National Weather Service New York NY 600 PM EDT TUE MAY 22 2018 Note: "FAIR" indicates few or no clouds below 12,000 feet with no significant weather and/or obstructions to visibility. NYZ071-072-176-178-NJZ106-104-222300- New York City Metro Area CITY SKY/WX TMP DP RH WIND PRES REMARKS Central Park CLOUDY 57 55 93 CALM 30.07S Bronx Bot Gard N/A 55 54 94 E1 30.07R Bronx Lehman C N/A 57 52 82 E2 N/A LaGuardia Arpt CLOUDY 58 51 78 NE7 30.04F Queens College N/A 57 54 88 NE3 N/A Kennedy Intl CLOUDY 59 58 96 E6 30.05F Breezy Point N/A 55 N/A N/A E5 N/A Brooklyn Coll N/A 59 55 88 E5 N/A Staten Island N/A 59 55 88 E2 N/A Newark/Liberty LGT RAIN 58 53 84 N7 30.04F Teterboro CLOUDY 58 53 84 CALM 30.03F $$ NYZ177-179-078>081-222300- Long Island New York CITY SKY/WX TMP DP RH WIND PRES REMARKS Jones Beach N/A 57 N/A N/A E5 N/A Wantagh N/A 59 55 88 E2 N/A Hempstead N/A 59 57 94 E1 30.07S Matinecock Pt N/A 55 N/A N/A NE5 N/A Farmingdale RAIN 59 56 89 E7 30.04F MacArthur/ISP LGT RAIN 59 56 89 E5 30.04F Stony Brook N/A 57 55 94 NE2 N/A Shirley LGT RAIN 59 58 96 SE3 30.04F Mt Sinai Harb N/A N/A N/A N/A CALM N/A Westhampton RAIN 58 54 86 SE5 30.06F FOG East Hampton LGT RAIN 57 55 92 MISG 30.04F Southold N/A 57 55 94 E3 N/A Montauk N/A 58 55 90 CALM 30.08F $$ NYZ052-065-067-222300- Hudson Valley CITY SKY/WX TMP DP RH WIND PRES REMARKS White Plains CLOUDY 55 52 89 E3 30.04F Larchmont Harb N/A 54 N/A N/A NE5 N/A Croton On Huds N/A 57 N/A N/A S2G8 N/A Somers N/A 55 54 94 S5 N/A Brewster N/A 55 52 88 S5 N/A Newburgh NOT AVBL Montgomery CLOUDY 57 52 83 SW3 30.02F Otisville N/A 55 55 100 SE2 N/A Warwick N/A 59 59 100 S3 N/A Suffern N/A 55 55 100 SE1 N/A Poughkeepsie CLOUDY 59 52 77 CALM 30.02F Albany LGT RAIN 62 54 74 S14G23 29.97F $$ NJZ001-105-106-008-010-013-015-019>022-104-222300- New Jersey CITY SKY/WX TMP DP RH WIND PRES REMARKS Newark/Liberty LGT RAIN 58 53 84 N7 30.04F Teterboro CLOUDY 58 53 84 CALM 30.03F Caldwell CLOUDY 57 54 89 SE3 30.04F Somerville CLOUDY 58 56 93 N3 30.01F Linden LGT RAIN 60 56 87 CALM 30.04S Perth Amboy N/A 59 N/A N/A E7 N/A Sussex CLOUDY 58 56 93 VRB3 30.03F Andover N/A 57 55 93 SE3 30.03F Trenton LGT RAIN 62 59 90 N3 30.02S Millville PTSUNNY 68 62 81 SE3 30.00F Atlantic City FAIR 67 62 84 SE5 30.01F Wrightstown PTSUNNY 62 59 90 NE5 30.00 Toms River CLOUDY 62 60 93 E3 30.03F Belmar CLOUDY 59 57 93 E5 30.04F $$ PAZ047>061-062-071-222300- Eastern Pennsylvania CITY SKY/WX TMP DP RH WIND PRES REMARKS Philadelphia CLOUDY 63 59 87 E5 30.02S Allentown LGT RAIN 60 56 86 CALM 30.03S FOG Scranton CLOUDY 62 57 83 CALM 29.99F $$ CTZ002-004>006-009-010-012-RIZ004-006-007-MAZ004-011-015-222300- Southern New England In CT CITY SKY/WX TMP DP RH WIND PRES REMARKS Bradley Intl LGT RAIN 57 51 80 S9 30.06F Hartford LGT RAIN 57 52 83 S5 30.05F Danbury LGT RAIN 56 53 90 S6 30.05F Wtrbury/Oxford LGT RAIN 54 52 93 S5 30.06F Norwalk Harbor N/A 54 N/A N/A MISG N/A Bridgeport RAIN 56 52 86 N3 30.05F FOG Meriden LGT RAIN 57 54 89 VRB3 30.05F New Haven LGT RAIN 58 54 86 CALM 30.05F Chester LGT RAIN 55 54 94 CALM 30.05 Groton LGT RAIN 56 54 93 CALM 30.06F FOG Willimantic RAIN 57 53 86 SW3 30.06F FOG In RI CITY SKY/WX TMP DP RH WIND PRES REMARKS Providence LGT RAIN 58 54 86 S6 30.08F Block Island LGT RAIN 57 53 86 S6 30.08F Westerly LGT RAIN 57 53 86 SE3 30.07F FOG In MA CITY SKY/WX TMP DP RH WIND PRES REMARKS Boston LGT RAIN 61 52 72 S9 30.06F Worcester LGT RAIN 54 50 86 S9 30.07F FOG Westfield CLOUDY 58 49 72 S15G23 30.04F Provincetown LGT RAIN 57 51 80 SW8 30.09S Nantucket CLOUDY 55 46 71 S7 30.10F $$ ANZ330-335-338-340-345-350-353-355-222300- Coastal Marine Observations STATION/POSITION TIME SKY/WX TEMP WIND PRES VSBY WAVE AIR SEA DIR/SP/G HT/PER (UTC) (F) (DEG/KT/KT) (MB) (MI) (FT/S) NY Harb Entrance 2150 56 56 80/ 8/ 12 1016.9 2/ 7 20 S Fire Island 2050 56 54 60/ 8/ 8 1017.9 2/ 9 23 SSW Montauk P 2150 56 55 110/ 8/ 8 1018.1 2/ 9 15 E Barnegat Li 2130 57 N/A 2/ 9 Hudson Canyon 2150 57 53 70/ 6/ 8 1016.2 2/ 8 Kings Point 2142 56 57 60/ 2/ 4 1018.5 Execution Rocks NOT AVBL Western LI Sound NOT AVBL Central LI Sound 2145 53 70/ 6/ 8 N/A 0 Robbins Reef 2142 59 80/ 3/ 5 1017.7 $$ >>>>>>>>>>>>>>>>>>>>>>>>>>>> KEY <<<<<<<<<<<<<<<<<<<<<<<<<<< > < > SKY/WX - Sky Condition/Present Weather < > TMP - Temperature in Fahrenheit < > DP - Dew Point in Fahrenheit < > RH - Relative Humidity in Percent < > WIND - Direction (from) and Speed in MPH < > PRES - Mean Sea Level Pressure (inches of Hg) < > WCI - Wind Chill Index < > VSB - Visibility in Miles < > HX - Heat Index < > TC - Temperature in Celsius < > VRB - Varibale Wind Direction < > < >>>>>>>>>>>>>>>>>>>>>>>>>>>> KEY <<<<<<<<<<<<<<<<<<<<<<<<<<<